[[{"header":{"parameterUnit":"m.s-1","parameterCategory":2,"la1":30.2991,"la2":30.254,"lo1":-89.0895,"lo2":-89.0444,"dy":0.0017,"dx":0.0017,"nx":28,"ny":28,"refTime":"2024-02-08T09:00:00:Z","depth":"0","parameterNumber":2,"parameterNumberName":"U-component_of_CURRENTS"},"data":[0,0,0,0,0,0,0,0,0,0,0,0,0,0,0,0,0,0,0,0,0,0,0,0,0,0,0,0,0,0,0,0,0,0,0,0,0,0,0,0,0,0,0,0,0,0,0,0,0,0,0,0,0,0,0,0,0,0,0.3184,0.3184,0,0.3184,0.3184,0.3184,0.3162,0.3162,0.3161,0.3161,0.3132,0.3132,0.3131,0,0,0,0,0,0,0,0,0,0,0,0,0,0.3173,0.3173,0.3184,0.3184,0.3184,0.3184,0.3184,0.3184,0.3162,0.3162,0.3161,0.3161,0.3132,0.3132,0.3131,0,0,0,0,0,0,0,0,0,0,0,0,0,0.3173,0.3173,0.3184,0.3175,0.3175,0.3184,0.3184,0.3184,0.3162,0.3162,0.3161,0.3161,0.3132,0.3132,0.3131,0.3138,0,0,0.3129,0.3129,0,0,0,0,0,0,0,0,0.3173,0.3174,0.3176,0.3176,0.3175,0.3175,0.317,0.3168,0.3162,0.3164,0.3161,0.316,0.3145,0.3144,0.3142,0.3137,0.3135,0.3129,0.3129,0.3128,0.3128,0,0,0,0,0,0,0,0.3173,0.3173,0.3182,0.3177,0.3176,0.3174,0.3173,0.3169,0.3156,0.3164,0.3163,0.3167,0.3145,0.3143,0.3141,0.3135,0.3129,0.3128,0.3128,0.3128,0.3169,0.317,0,0,0,0,0,0,0.3178,0.3173,0.3182,0.3182,0.3176,0.3175,0.3174,0.3173,0.3156,0.3154,0.3168,0.3166,0.3144,0.3142,0.314,0.3168,0.3128,0.3128,0.3127,0.3168,0.3169,0.3171,0,0,0,0,0,0,0.3178,0.3179,0.3182,0.318,0.318,0.3176,0.3175,0.3174,0.3177,0.316,0.3156,0.3173,0.3144,0.3141,0.3149,0.3166,0.3127,0.3127,0.3166,0.3168,0.317,0.3212,0,0,0,0,0,0,0.3177,0.3179,0.3182,0.318,0.3181,0.3196,0.3176,0.3174,0.3181,0.3179,0.3163,0.316,0.3143,0.315,0.3148,0.3165,0.3126,0.3164,0.3167,0.3169,0.3208,0.3215,0.3221,0,0,0,0,0,0.3177,0.3178,0.3182,0.3183,0.3184,0.3197,0.3198,0.3191,0.3182,0.319,0.3182,0.316,0.3166,0.3151,0.3148,0.3165,0.3163,0.3166,0.3169,0.3206,0.3214,0.322,0,0,0,0,0,0,0.3169,0.3176,0.318,0.3182,0.3196,0.3195,0.3199,0.3198,0.3198,0.3195,0.3175,0.3172,0.319,0.3175,0.3158,0.3188,0.3163,0.3166,0.3192,0.3199,0.3205,0.322,0.3126,0,0,0,0,0,0.3173,0.3177,0.3189,0.3193,0.32,0.3203,0.3208,0.3209,0.3209,0.3208,0.3197,0.3193,0.3202,0.3198,0.3202,0.3211,0.322,0.3223,0.323,0.3235,0.3247,0.3285,0.3295,0.3182,0.3182,0.3182,0,0,0.3168,0.3176,0.3175,0.3193,0.3199,0.3213,0.3204,0.3217,0.3231,0.3205,0.3215,0.3216,0.3213,0.3229,0.3235,0.3216,0.3272,0.3239,0.3243,0.3253,0.3289,0.33,0.331,0.3184,0.3184,0.3183,0,0,0.3164,0.3172,0.3177,0.3193,0.3215,0.3223,0.3232,0.324,0.3248,0.326,0.3256,0.3272,0.3263,0.3276,0.3278,0.3323,0.331,0.332,0.3352,0.3388,0.3398,0.3406,0.3431,0.3442,0.3315,0.3315,0.3315,0,0.3159,0.3168,0.3182,0.3197,0.3213,0.323,0.3246,0.3261,0.3272,0.3285,0.3267,0.3293,0.3289,0.3327,0.3344,0.3337,0.335,0.332,0.3396,0.3405,0.3413,0.3436,0.3447,0.3317,0.3317,0.3317,0.3316,0,0.3161,0.3174,0.3181,0.3207,0.3229,0.3246,0.3276,0.3296,0.3302,0.3315,0.3352,0.3355,0.337,0.3376,0.337,0.3431,0.342,0.3405,0.3375,0.3426,0.3448,0.3459,0.3321,0.332,0.3319,0.3318,0,0,0.3128,0.3172,0.3174,0.3187,0.3237,0.3247,0.3293,0.3332,0.336,0.3372,0.3408,0.3433,0.344,0.3447,0.3451,0.3482,0.355,0.3469,0.347,0.349,0.3628,0.3585,0.3592,0.3546,0.3548,0.3549,0.362,0,0.3125,0.3145,0.3181,0.3205,0.3217,0.3264,0.3302,0.3344,0.3382,0.3422,0.3448,0.3484,0.3466,0.3484,0.3514,0.3552,0.3581,0.3533,0.3579,0.3581,0.3533,0.3604,0.3435,0.3481,0.363,0.3632,0.3633,0,0.311,0.3129,0.3152,0.3199,0.3211,0.3236,0.3304,0.3345,0.3423,0.3451,0.35,0.3531,0.3596,0.3566,0.3648,0.3617,0.363,0.3647,0.3649,0.3604,0.3558,0.3455,0.3494,0.3425,0.3649,0.3648,0.3646,0,0.3056,0.3103,0.312,0.3136,0.3198,0.3224,0.3263,0.3347,0.3391,0.3487,0.3523,0.3598,0.3637,0.3679,0.3719,0.3693,0.38,0.3761,0.3732,0.3728,0.3592,0.3573,0.3566,0.3816,0.3816,0.3816,0.3816,0,0.3026,0.3033,0.3092,0.3094,0.3123,0.3186,0.3237,0.3293,0.3389,0.344,0.3532,0.359,0.3669,0.3737,0.3756,0.3787,0.3828,0.3762,0.3755,0.3601,0.3583,0.3522,0.3473,0.3818,0.3818,0.3817,0.3817,0,0.2959,0.2996,0.3011,0.3074,0.3093,0.3113,0.3203,0.3238,0.3345,0.342,0.3456,0.36,0.3701,0.3769,0.3856,0.3827,0.3757,0.3859,0.3674,0.3644,0.3532,0.3491,0.3357,0.3257,0.3839,0.3839,0.3838,0,0.2924,0.2926,0.2978,0.2983,0.301,0.3054,0.308,0.3193,0.324,0.3416,0.3438,0.3594,0.3673,0.3799,0.3805,0.3842,0.3737,0.3692,0.361,0.3526,0.3476,0.3344,0.3259,0.3444,0.3441,0.3438,0.3436,0,0.2862,0.2884,0.2897,0.2908,0.2927,0.2952,0.3003,0.3036,0.317,0.3244,0.3364,0.3464,0.3614,0.3607,0.3678,0.3674,0.3503,0.3632,0.3588,0.3214,0.3023,0.2922,0.3402,0.3409,0.3412,0.3414,0.3415,0.3416,0.2813,0.2805,0.282,0.2817,0.2832,0.2829,0.2807,0.2881,0.2938,0.3022,0.3203,0.3282,0.3394,0.3485,0.3471,0.3359,0.3336,0.3234,0.3208,0.3096,0.294,0.3371,0.3345,0.3347,0.3349,0.3351,0.3352,0,0.2733,0.2724,0.2722,0.27,0.2658,0.2711,0.2726,0.269,0.2694,0.2839,0.2924,0.3029,0.3043,0.3129,0.3096,0.296,0.2809,0.2862,0.2631,0.2583,0.301,0.2935,0.2765,0.2765,0.2765,0.2765,0.2765,0.2766,0.2691,0.2644,0.2631,0.2526,0.2504,0.2416,0.2392,0.2379,0.2439,0.2481,0.2542,0.2657,0.2848,0.2859,0.2762,0.2683,0.2479,0.231,0.2346,0.2655,0.2687,0.2718,0.264,0.2411,0.241,0.1793,0.1788,0.1785]},{"header":{"parameterUnit":"m.s-1","parameterCategory":2,"la1":30.2991,"la2":30.254,"lo1":-89.0895,"lo2":-89.0444,"dy":0.0017,"dx":0.0017,"nx":28,"ny":28,"refTime":"2024-02-08T09:00:00:Z","depth":"0","parameterNumber":3,"parameterNumberName":"V-component_of_CURRENTS"},"data":[0,0,0,0,0,0,0,0,0,0,0,0,0,0,0,0,0,0,0,0,0,0,0,0,0,0,0,0,0,0,0,0,0,0,0,0,0,0,0,0,0,0,0,0,0,0,0,0,0,0,0,0,0,0,0,0,0,0,0.0296,0.0296,0,0.0249,0.0248,0.0248,0.0212,0.0211,0.0211,0.0211,0.0152,0.0151,0.0149,0,0,0,0,0,0,0,0,0,0,0,0,0,0.03,0.03,0.0296,0.0296,0.0296,0.0249,0.0248,0.0247,0.0212,0.0211,0.0211,0.0211,0.0153,0.0151,0.0149,0,0,0,0,0,0,0,0,0,0,0,0,0,0.0279,0.03,0.0297,0.0273,0.0271,0.0249,0.0248,0.0247,0.0212,0.0211,0.0211,0.0211,0.0153,0.0151,0.0149,0.0142,0,0,0.0143,0.0142,0,0,0,0,0,0,0,0,0.028,0.0278,0.0277,0.0275,0.0272,0.0237,0.0228,0.0212,0.0212,0.0233,0.0211,0.0211,0.0181,0.0176,0.0166,0.0139,0.0137,0.0142,0.0141,0.014,0.014,0,0,0,0,0,0,0,0.0282,0.028,0.0276,0.0277,0.0273,0.0246,0.0243,0.0224,0.0207,0.0231,0.0228,0.0225,0.0179,0.0168,0.0164,0.0136,0.0143,0.0141,0.0139,0.0139,0.0102,0.0102,0,0,0,0,0,0,0.0294,0.0282,0.0278,0.0275,0.0277,0.0246,0.0243,0.0247,0.0208,0.0202,0.0226,0.0224,0.0172,0.0167,0.0162,0.017,0.014,0.0138,0.0137,0.0102,0.0102,0.0102,0,0,0,0,0,0,0.0294,0.0294,0.028,0.0278,0.0274,0.0247,0.0252,0.0247,0.024,0.0205,0.0198,0.0225,0.0171,0.0165,0.0153,0.0167,0.0137,0.0136,0.0101,0.0102,0.0102,0.0174,0,0,0,0,0,0,0.0295,0.0295,0.0302,0.0279,0.0275,0.0278,0.0252,0.0246,0.0239,0.0236,0.0202,0.0196,0.0171,0.0156,0.0151,0.0164,0.0134,0.0101,0.0101,0.0102,0.0172,0.0177,0.0182,0,0,0,0,0,0.0295,0.0311,0.0303,0.0303,0.0286,0.0279,0.0274,0.0252,0.024,0.0243,0.0219,0.0197,0.0155,0.0155,0.0149,0.0161,0.0101,0.0101,0.0102,0.0169,0.0176,0.0182,0,0,0,0,0,0,0.0315,0.0308,0.0299,0.0312,0.03,0.0273,0.0274,0.0259,0.0241,0.024,0.0203,0.0195,0.0187,0.0163,0.0164,0.015,0.0124,0.0123,0.0177,0.0183,0.0188,0.021,0.0132,0,0,0,0,0,0.0325,0.0335,0.0319,0.0329,0.0326,0.03,0.0294,0.0283,0.0264,0.0256,0.023,0.0203,0.0184,0.0176,0.0152,0.015,0.012,0.0151,0.0156,0.0161,0.0173,0.014,0.0144,0.0104,0.0104,0.0104,0,0,0.0333,0.0332,0.0336,0.0334,0.0321,0.033,0.0296,0.0296,0.0306,0.0253,0.0254,0.022,0.0186,0.018,0.0175,0.0164,0.0155,0.0162,0.0166,0.0176,0.0141,0.0145,0.0149,0.0105,0.0105,0.0105,0,0,0.0363,0.0357,0.0377,0.0371,0.0365,0.0354,0.0358,0.0337,0.0331,0.0326,0.029,0.0268,0.0236,0.0218,0.0204,0.0223,0.018,0.0212,0.0261,0.0229,0.0232,0.0235,0.0197,0.0195,0.0218,0.0218,0.0218,0,0.0372,0.0399,0.038,0.0396,0.0401,0.0371,0.0394,0.0384,0.0362,0.0363,0.0337,0.0289,0.0257,0.0256,0.0259,0.0237,0.0208,0.0243,0.0237,0.0239,0.024,0.02,0.0198,0.0222,0.0222,0.0221,0.0221,0,0.0415,0.0435,0.0445,0.0461,0.0463,0.0477,0.0465,0.0469,0.0453,0.0434,0.0421,0.037,0.0345,0.0326,0.0299,0.0297,0.0269,0.0246,0.0226,0.0249,0.0205,0.0201,0.0227,0.0226,0.0225,0.0224,0,0,0.0445,0.0472,0.0477,0.0502,0.0501,0.0513,0.0534,0.0546,0.0568,0.0524,0.054,0.0487,0.0448,0.043,0.0387,0.0358,0.0334,0.0313,0.0309,0.0283,0.0258,0.0254,0.0248,0.0309,0.0309,0.0309,0.0222,0,0.0487,0.0543,0.0541,0.0594,0.0623,0.0609,0.0636,0.064,0.0627,0.0631,0.0572,0.0559,0.0492,0.0481,0.0441,0.0368,0.0328,0.0359,0.0233,0.0229,0.0229,0.0246,0.0276,0.0203,0.0218,0.0217,0.0216,0,0.0536,0.057,0.0633,0.0682,0.0692,0.0719,0.0764,0.0782,0.0774,0.0763,0.0729,0.067,0.0626,0.056,0.0444,0.0467,0.037,0.0301,0.0295,0.0267,0.0218,0.0181,0.0194,0.0098,0.021,0.021,0.0211,0,0.0586,0.0639,0.0699,0.071,0.0753,0.0787,0.0813,0.0824,0.0858,0.0844,0.0853,0.0774,0.0751,0.0623,0.0475,0.0457,0.0342,0.0295,0.0194,0.0191,0.0182,0.0179,0.0097,0.0203,0.0203,0.0203,0.0203,0,0.0639,0.0684,0.0731,0.0762,0.0845,0.0849,0.0928,0.0941,0.0968,0.1021,0.0923,0.0944,0.0766,0.0673,0.0514,0.0358,0.0368,0.021,0.0175,0.0206,0.0207,0.0093,-0.0003,0.02,0.02,0.0201,0.0202,0,0.0684,0.071,0.0785,0.0846,0.0873,0.0933,0.1014,0.1069,0.1078,0.1145,0.1143,0.1079,0.0967,0.0772,0.058,0.043,0.0189,0.0197,0.0245,0.0218,0.0031,-0.0063,-0.0221,-0.0285,0.0068,0.0067,0.0067,0,0.0713,0.0758,0.085,0.0902,0.0935,0.1021,0.1087,0.1128,0.1195,0.1238,0.1283,0.1194,0.1165,0.0878,0.0602,0.0328,0.0179,0.016,0.0127,0.0037,-0.0095,-0.0155,-0.0201,0.013,0.013,0.013,0.013,0,0.0768,0.0802,0.0862,0.0972,0.1054,0.1152,0.125,0.1322,0.1384,0.1444,0.1512,0.149,0.1232,0.0998,0.0625,0.0419,0.0086,0.0153,0.0047,-0.0058,-0.0118,-0.0199,0.0163,0.0131,0.0131,0.0131,0.0131,0.0131,0.081,0.0863,0.0945,0.1048,0.1146,0.1271,0.1359,0.1471,0.1597,0.17,0.1688,0.1699,0.136,0.0871,0.0587,0.0122,0.0077,-0.0016,-0.0127,-0.018,-0.0226,0.0141,0.0081,0.0081,0.0081,0.008,0.008,0,0.0858,0.0917,0.1013,0.1137,0.1244,0.1292,0.1458,0.1554,0.1711,0.1832,0.1895,0.1767,0.1335,0.088,0.0245,-0.0078,-0.0208,-0.0259,-0.0334,-0.0373,-0.0045,-0.0022,-0.009,-0.009,-0.009,-0.0089,-0.0089,-0.0089,0.0885,0.0974,0.102,0.1192,0.1282,0.1429,0.1526,0.1679,0.1809,0.1959,0.2007,0.2018,0.17,0.0575,-0.0164,-0.0347,-0.0554,-0.0614,-0.0737,-0.05,-0.0485,-0.047,-0.0466,-0.0627,-0.0628,-0.0981,-0.0985,-0.0988]}],[{"header":{"parameterUnit":"m.s-1","parameterCategory":2,"la1":30.2991,"la2":30.254,"lo1":-89.0895,"lo2":-89.0444,"dy":0.0017,"dx":0.0017,"nx":28,"ny":28,"refTime":"2024-02-08T09:00:00:Z","depth":"2","parameterNumber":2,"parameterNumberName":"U-component_of_CURRENTS"},"data":[0,0,0,0,0,0,0,0,0,0,0,0,0,0,0,0,0,0,0,0,0,0,0,0,0,0,0,0,0,0,0,0,0,0,0,0,0,0,0,0,0,0,0,0,0,0,0,0,0,0,0,0,0,0,0,0,0,0,0.294,0.294,0,0.2947,0.2947,0.2947,0.2938,0.2938,0.2937,0.2937,0.2927,0.2927,0.2926,0,0,0,0,0,0,0,0,0,0,0,0,0,0.2922,0.2922,0.294,0.294,0.294,0.2947,0.2947,0.2947,0.2938,0.2938,0.2937,0.2937,0.2927,0.2927,0.2926,0,0,0,0,0,0,0,0,0,0,0,0,0,0.2927,0.2922,0.294,0.2938,0.2938,0.2947,0.2947,0.2947,0.2938,0.2938,0.2937,0.2937,0.2927,0.2927,0.2926,0.2929,0,0,0.2926,0.2926,0,0,0,0,0,0,0,0,0.2927,0.2928,0.2938,0.2938,0.2939,0.2943,0.2937,0.2941,0.2938,0.2936,0.2937,0.2937,0.2932,0.2932,0.293,0.2928,0.2928,0.2926,0.2926,0.2925,0.2925,0,0,0,0,0,0,0,0.2927,0.2927,0.294,0.2939,0.2939,0.2939,0.2939,0.2938,0.2933,0.2936,0.2936,0.294,0.2932,0.2931,0.293,0.2928,0.2926,0.2925,0.2925,0.2925,0.2979,0.2981,0,0,0,0,0,0,0.293,0.2927,0.294,0.2941,0.2935,0.2939,0.294,0.294,0.2933,0.2933,0.294,0.294,0.2931,0.293,0.293,0.297,0.2925,0.2925,0.2925,0.2978,0.2979,0.2981,0,0,0,0,0,0,0.293,0.2931,0.294,0.2936,0.2938,0.294,0.2941,0.294,0.2951,0.2937,0.2936,0.2952,0.2931,0.293,0.2946,0.2968,0.2925,0.2925,0.2976,0.2978,0.298,0.3026,0,0,0,0,0,0,0.2929,0.2931,0.2938,0.2936,0.2938,0.2957,0.2941,0.2941,0.2954,0.2954,0.2947,0.2945,0.2931,0.2946,0.2946,0.2967,0.2925,0.2974,0.2977,0.298,0.3022,0.3029,0.3036,0,0,0,0,0,0.2928,0.2933,0.2938,0.294,0.2945,0.2958,0.296,0.2959,0.2955,0.2966,0.2965,0.2946,0.2965,0.2947,0.2946,0.2968,0.2972,0.2976,0.2979,0.3019,0.3028,0.3035,0,0,0,0,0,0,0.2925,0.2933,0.2938,0.2944,0.2959,0.2958,0.2967,0.2969,0.2976,0.2977,0.2961,0.296,0.2986,0.2974,0.2955,0.2995,0.2967,0.2971,0.2998,0.3006,0.3013,0.3024,0.2924,0,0,0,0,0,0.2931,0.2937,0.2948,0.2956,0.2965,0.297,0.2977,0.2981,0.2986,0.2989,0.2985,0.2987,0.2999,0.3,0.3006,0.3021,0.3027,0.3038,0.3044,0.305,0.3061,0.3096,0.3106,0.2993,0.2993,0.2993,0,0,0.2929,0.2937,0.2939,0.2957,0.2965,0.2981,0.2974,0.2991,0.3008,0.2987,0.3007,0.3012,0.3011,0.3033,0.3043,0.3024,0.3086,0.3054,0.3059,0.3067,0.3101,0.3112,0.3121,0.2995,0.2995,0.2994,0,0,0.293,0.2942,0.2949,0.2965,0.2989,0.2997,0.3008,0.302,0.3031,0.3051,0.305,0.3072,0.3073,0.3085,0.3089,0.3137,0.3126,0.3139,0.3173,0.3207,0.3217,0.3225,0.3247,0.3257,0.3135,0.3136,0.3136,0,0.2931,0.2942,0.2955,0.2972,0.2988,0.3007,0.3025,0.3042,0.3059,0.3075,0.3064,0.3101,0.3099,0.3139,0.3158,0.3152,0.3166,0.3139,0.3216,0.3224,0.3232,0.3252,0.3263,0.3138,0.3138,0.3138,0.3137,0,0.2936,0.2953,0.2961,0.2989,0.3011,0.3031,0.306,0.3085,0.3099,0.3112,0.3157,0.3165,0.3186,0.3194,0.3188,0.3249,0.324,0.3224,0.3192,0.3246,0.3264,0.3274,0.3142,0.3141,0.314,0.314,0,0,0.2912,0.2956,0.2959,0.2974,0.3024,0.3035,0.3083,0.3123,0.3155,0.3176,0.3215,0.3246,0.3258,0.3266,0.3272,0.3302,0.3368,0.329,0.329,0.3307,0.3442,0.3387,0.3392,0.3366,0.3368,0.337,0.3432,0,0.2913,0.2937,0.297,0.3,0.3014,0.306,0.3099,0.3142,0.3183,0.3227,0.3255,0.3297,0.3284,0.3308,0.3337,0.3369,0.3397,0.3352,0.3393,0.3394,0.3334,0.3403,0.3111,0.3138,0.3442,0.3444,0.3445,0,0.2903,0.2924,0.2953,0.3001,0.3013,0.3042,0.3114,0.3155,0.3232,0.3264,0.3318,0.3349,0.3414,0.3388,0.3465,0.3438,0.3449,0.3462,0.3464,0.3404,0.3357,0.3135,0.3144,0.3461,0.346,0.3459,0.3458,0,0.2858,0.2907,0.2929,0.2946,0.3009,0.3039,0.308,0.3163,0.3207,0.3305,0.3343,0.3418,0.3459,0.3498,0.3533,0.351,0.3605,0.3569,0.3526,0.3522,0.3277,0.3248,0.362,0.362,0.362,0.362,0.362,0,0.2834,0.2847,0.2909,0.2915,0.295,0.3012,0.3068,0.3125,0.322,0.3269,0.336,0.3415,0.3492,0.3552,0.3567,0.3586,0.3633,0.3553,0.3544,0.3285,0.3257,0.3536,0.3526,0.3622,0.3622,0.3621,0.3621,0,0.2776,0.2815,0.2838,0.2904,0.2926,0.2952,0.3044,0.308,0.3187,0.3261,0.3298,0.3431,0.352,0.3581,0.3657,0.3622,0.3651,0.3639,0.3332,0.3286,0.3534,0.3525,0.3602,0.3601,0.36,0.3599,0.3598,0,0.2746,0.2753,0.2813,0.2822,0.2853,0.2905,0.2934,0.3045,0.309,0.3259,0.3278,0.3422,0.3483,0.3584,0.3567,0.3588,0.3654,0.3318,0.3223,0.3554,0.3537,0.353,0.3523,0.2912,0.2905,0.29,0.2896,0,0.2692,0.2718,0.2736,0.2757,0.2782,0.281,0.2866,0.29,0.303,0.3095,0.3198,0.328,0.3393,0.3297,0.3343,0.3311,0.3295,0.3216,0.3642,0.2973,0.2911,0.2892,0.2906,0.285,0.2855,0.2858,0.2861,0.2862,0.265,0.2646,0.2669,0.2675,0.2697,0.2699,0.2682,0.275,0.28,0.2865,0.3023,0.3032,0.3081,0.3015,0.2933,0.2867,0.3095,0.2935,0.2947,0.2965,0.2886,0.2826,0.2734,0.2738,0.2741,0.2744,0.2746,0,0.2577,0.2575,0.2579,0.2567,0.2532,0.2589,0.2608,0.2567,0.2561,0.2658,0.271,0.2525,0.2474,0.2529,0.2356,0.2365,0.2303,0.2267,0.2145,0.2194,0.2237,0.2116,0.1763,0.176,0.1757,0.1754,0,0,0.2539,0.25,0.2489,0.24,0.2389,0.2312,0.2293,0.2262,0.2285,0.2245,0.2218,0.2386,0.247,0.2088,0.2039,0.1868,0.2014,0.1796,0.2589,0.2497,0.2535,0.2634,0.2506,0,0,0,0,0]},{"header":{"parameterUnit":"m.s-1","parameterCategory":2,"la1":30.2991,"la2":30.254,"lo1":-89.0895,"lo2":-89.0444,"dy":0.0017,"dx":0.0017,"nx":28,"ny":28,"refTime":"2024-02-08T09:00:00:Z","depth":"2","parameterNumber":3,"parameterNumberName":"V-component_of_CURRENTS"},"data":[0,0,0,0,0,0,0,0,0,0,0,0,0,0,0,0,0,0,0,0,0,0,0,0,0,0,0,0,0,0,0,0,0,0,0,0,0,0,0,0,0,0,0,0,0,0,0,0,0,0,0,0,0,0,0,0,0,0,0.0223,0.0223,0,0.018,0.0179,0.0179,0.0148,0.0147,0.0147,0.0147,0.0093,0.0092,0.0091,0,0,0,0,0,0,0,0,0,0,0,0,0,0.0227,0.0228,0.0223,0.0223,0.0223,0.018,0.0179,0.0179,0.0148,0.0147,0.0147,0.0147,0.0094,0.0092,0.0091,0,0,0,0,0,0,0,0,0,0,0,0,0,0.0208,0.0228,0.0223,0.0203,0.0201,0.018,0.0179,0.0178,0.0148,0.0147,0.0147,0.0147,0.0094,0.0092,0.009,0.0083,0,0,0.0084,0.0083,0,0,0,0,0,0,0,0,0.0209,0.0208,0.0206,0.0204,0.0202,0.017,0.0161,0.0146,0.0148,0.0167,0.0147,0.0147,0.0119,0.0115,0.0106,0.008,0.0078,0.0084,0.0083,0.0082,0.0082,0,0,0,0,0,0,0,0.0211,0.0209,0.0205,0.0206,0.0203,0.0178,0.0175,0.0158,0.0143,0.0165,0.0163,0.016,0.0117,0.0108,0.0104,0.0077,0.0084,0.0082,0.0081,0.0081,0.0045,0.0045,0,0,0,0,0,0,0.0222,0.0211,0.0206,0.0204,0.0206,0.0178,0.0175,0.0179,0.0144,0.0138,0.016,0.0159,0.0111,0.0106,0.0102,0.0109,0.0082,0.008,0.0079,0.0045,0.0045,0.0045,0,0,0,0,0,0,0.0222,0.0222,0.0208,0.0207,0.0203,0.0179,0.0184,0.0179,0.0173,0.014,0.0135,0.016,0.0111,0.0105,0.0094,0.0106,0.0079,0.0078,0.0044,0.0045,0.0045,0.0111,0,0,0,0,0,0,0.0222,0.0222,0.023,0.0208,0.0204,0.0206,0.0184,0.0178,0.0172,0.017,0.0139,0.0133,0.011,0.0097,0.0092,0.0103,0.0076,0.0044,0.0045,0.0045,0.0109,0.0114,0.0118,0,0,0,0,0,0.0223,0.0237,0.0231,0.023,0.0215,0.0207,0.0203,0.0183,0.0173,0.0176,0.0154,0.0134,0.0096,0.0096,0.009,0.01,0.0044,0.0044,0.0045,0.0107,0.0113,0.0118,0,0,0,0,0,0,0.0242,0.0235,0.0227,0.0238,0.0227,0.0202,0.0203,0.0189,0.0174,0.0173,0.0139,0.0133,0.0125,0.0103,0.0104,0.009,0.0066,0.0065,0.0115,0.012,0.0125,0.0144,0.0075,0,0,0,0,0,0.025,0.026,0.0245,0.0254,0.0251,0.0228,0.0222,0.0212,0.0195,0.0188,0.0164,0.014,0.0122,0.0114,0.0092,0.0089,0.0061,0.009,0.0094,0.0099,0.0109,0.0076,0.0079,0.0047,0.0047,0.0047,0,0,0.0258,0.0257,0.0261,0.0259,0.0247,0.0254,0.0224,0.0223,0.0232,0.0185,0.0186,0.0155,0.0123,0.0117,0.0112,0.0102,0.0091,0.0099,0.0103,0.0111,0.0077,0.0081,0.0083,0.0047,0.0047,0.0047,0,0,0.0285,0.028,0.0298,0.0293,0.0287,0.0277,0.0281,0.0262,0.0256,0.0251,0.0219,0.0199,0.017,0.0151,0.0138,0.0155,0.0115,0.0145,0.0188,0.0157,0.0159,0.0161,0.0125,0.0123,0.015,0.015,0.015,0,0.0294,0.0318,0.0301,0.0316,0.032,0.0293,0.0314,0.0304,0.0284,0.0284,0.0262,0.0218,0.0188,0.0184,0.0188,0.0167,0.014,0.0172,0.0164,0.0165,0.0166,0.0128,0.0126,0.0153,0.0153,0.0153,0.0152,0,0.0333,0.0351,0.036,0.0375,0.0377,0.0389,0.0378,0.0382,0.0367,0.0349,0.0336,0.0289,0.0266,0.0248,0.0224,0.0219,0.0194,0.0172,0.0154,0.0174,0.0132,0.0128,0.0158,0.0157,0.0156,0.0155,0,0,0.036,0.0385,0.0389,0.0412,0.0412,0.0423,0.0441,0.045,0.0469,0.0429,0.0442,0.0393,0.0359,0.0341,0.0302,0.0272,0.0248,0.0232,0.0229,0.0204,0.0174,0.0165,0.0159,0.0225,0.0225,0.0225,0.0141,0,0.0398,0.045,0.0448,0.0496,0.0523,0.051,0.0534,0.0536,0.0523,0.0525,0.047,0.0457,0.0397,0.0388,0.035,0.028,0.0241,0.0272,0.0152,0.0148,0.0145,0.0156,0.0175,0.0104,0.0137,0.0136,0.0135,0,0.0443,0.0474,0.0532,0.0576,0.0586,0.0611,0.065,0.0666,0.0655,0.0644,0.0612,0.0558,0.0515,0.0457,0.0345,0.0369,0.0279,0.0213,0.0208,0.0177,0.0133,0.0088,0.0095,0.0128,0.0129,0.0129,0.013,0,0.0489,0.0537,0.0592,0.0603,0.0642,0.0674,0.0697,0.0704,0.0734,0.0718,0.0726,0.065,0.0629,0.0509,0.0371,0.0357,0.0242,0.0202,0.0104,0.0101,0.0084,0.0081,0.0114,0.0114,0.0114,0.0114,0.0115,0,0.0537,0.0579,0.0623,0.0651,0.0728,0.0732,0.0804,0.0815,0.0836,0.0881,0.0792,0.0806,0.0641,0.0551,0.0405,0.0255,0.0264,0.0117,0.0084,0.0106,0.0107,0.0101,0.0101,0.0111,0.0112,0.0113,0.0113,0,0.0579,0.0603,0.0672,0.0728,0.0754,0.0811,0.0885,0.0933,0.094,0.0999,0.0998,0.093,0.0819,0.0638,0.0454,0.0316,0.0158,0.0096,0.0133,0.0107,0.0024,0.0028,-0.0026,-0.0027,-0.0027,-0.0028,-0.0029,0,0.0605,0.0647,0.0733,0.0783,0.0813,0.0894,0.0955,0.0991,0.1049,0.1081,0.112,0.1029,0.0991,0.0715,0.046,0.0205,0.0162,0.0043,0.0016,0.0039,0.0012,0.0017,0.0022,0.0008,0.0008,0.0008,0.0007,0,0.0654,0.0687,0.0743,0.0847,0.0924,0.1015,0.1105,0.1168,0.1221,0.1272,0.1321,0.129,0.104,0.08,0.0453,0.0272,0.0085,0.0031,0.0049,0.005,0.0066,0.0041,0.0046,0.0006,0.0006,0.0006,0.0006,0.0006,0.0692,0.0741,0.0818,0.0916,0.1008,0.1122,0.1203,0.1301,0.141,0.1487,0.1467,0.1426,0.1152,0.0715,0.0414,0.0084,0.0094,-0.0038,-0.0036,-0.0034,-0.0005,0.001,-0.0057,-0.0057,-0.0057,-0.0057,-0.0057,0,0.0735,0.079,0.0879,0.0995,0.1095,0.1143,0.1293,0.1371,0.1506,0.158,0.162,0.1354,0.1089,0.0759,0.0285,0.0008,-0.0021,-0.0098,-0.007,-0.0066,-0.0063,-0.0036,-0.0096,-0.0097,-0.0098,-0.0098,0,0,0.0758,0.084,0.0882,0.1042,0.1129,0.1266,0.1355,0.1474,0.1562,0.1629,0.1613,0.1572,0.119,0.0839,0.0459,0.0184,0.0119,0.012,0.0181,0.0263,0.0269,-0.0001,0.005,0,0,0,0,0]}],[{"header":{"parameterUnit":"m.s-1","parameterCategory":2,"la1":30.2991,"la2":30.254,"lo1":-89.0895,"lo2":-89.0444,"dy":0.0017,"dx":0.0017,"nx":28,"ny":28,"refTime":"2024-02-08T09:00:00:Z","depth":"4","parameterNumber":2,"parameterNumberName":"U-component_of_CURRENTS"},"data":[0,0,0,0,0,0,0,0,0,0,0,0,0,0,0,0,0,0,0,0,0,0,0,0,0,0,0,0,0,0,0,0,0,0,0,0,0,0,0,0,0,0,0,0,0,0,0,0,0,0,0,0,0,0,0,0,0,0,0.1964,0.1965,0,0.2022,0.2023,0.2023,0.2079,0.208,0.2081,0.2082,0.2157,0.2158,0.2159,0,0,0,0,0,0,0,0,0,0,0,0,0,0.1893,0.1894,0.1964,0.1965,0.1966,0.2022,0.2023,0.2023,0.2079,0.208,0.2081,0.2082,0.2156,0.2158,0.2159,0,0,0,0,0,0,0,0,0,0,0,0,0,0.1933,0.1894,0.1964,0.2001,0.2006,0.2022,0.2023,0.2024,0.2079,0.208,0.2081,0.2083,0.2156,0.2158,0.2159,0.2144,0,0,0.2165,0.2166,0,0,0,0,0,0,0,0,0.193,0.1935,0.1995,0.1999,0.2004,0.2046,0.2025,0.2065,0.2078,0.2049,0.2082,0.2083,0.2122,0.2126,0.2131,0.2147,0.2151,0.2165,0.2166,0.2167,0.2167,0,0,0,0,0,0,0,0.1928,0.1933,0.1985,0.1996,0.2001,0.2013,0.202,0.2033,0.2076,0.2052,0.2056,0.2065,0.2124,0.213,0.2134,0.2152,0.2165,0.2167,0.2168,0.2168,0.2286,0.2288,0,0,0,0,0,0,0.1923,0.193,0.1983,0.1987,0.1972,0.2013,0.2021,0.203,0.2076,0.2084,0.2064,0.2068,0.2126,0.2132,0.2137,0.2231,0.2167,0.2168,0.2169,0.2284,0.2286,0.2288,0,0,0,0,0,0,0.1921,0.1927,0.1981,0.1961,0.1969,0.2014,0.2023,0.203,0.2079,0.2085,0.2094,0.211,0.2127,0.2134,0.219,0.223,0.2169,0.2171,0.2281,0.2284,0.2287,0.2349,0,0,0,0,0,0,0.1919,0.1926,0.1952,0.1961,0.1971,0.2019,0.2022,0.2031,0.2081,0.2087,0.2127,0.2133,0.2129,0.2187,0.2191,0.2231,0.2172,0.2279,0.2283,0.2286,0.2344,0.2353,0.2362,0,0,0,0,0,0.1916,0.1936,0.1953,0.1961,0.1998,0.202,0.2027,0.206,0.2082,0.2108,0.2141,0.2134,0.2215,0.219,0.2195,0.2236,0.2277,0.2281,0.2286,0.234,0.2352,0.2361,0,0,0,0,0,0,0.192,0.1944,0.1963,0.1991,0.202,0.2031,0.2064,0.2084,0.2129,0.215,0.2156,0.2164,0.2229,0.2225,0.2198,0.2283,0.2246,0.2252,0.2286,0.2297,0.2305,0.2307,0.2174,0,0,0,0,0,0.1931,0.1957,0.1978,0.2008,0.2025,0.2053,0.2076,0.21,0.213,0.2153,0.2181,0.2213,0.2243,0.2266,0.2289,0.2331,0.233,0.2363,0.2372,0.2379,0.2386,0.2422,0.2434,0.2303,0.2303,0.2303,0,0,0.1941,0.196,0.1977,0.2013,0.2039,0.2066,0.2072,0.2118,0.2153,0.2153,0.2224,0.2249,0.2263,0.2315,0.2344,0.2322,0.2417,0.2385,0.2391,0.2394,0.2428,0.244,0.2451,0.2307,0.2306,0.2305,0,0,0.1956,0.1993,0.2016,0.2042,0.2091,0.2106,0.2129,0.2168,0.2205,0.2261,0.2277,0.2329,0.2371,0.2392,0.2404,0.2475,0.2464,0.2492,0.2535,0.257,0.258,0.259,0.2603,0.2613,0.2493,0.2493,0.2493,0,0.1973,0.2001,0.2029,0.2057,0.2087,0.2128,0.2161,0.2196,0.2253,0.2287,0.2297,0.2386,0.2404,0.2462,0.2493,0.2495,0.2508,0.249,0.258,0.2589,0.2598,0.2609,0.2619,0.2496,0.2496,0.2496,0.2495,0,0.1989,0.2032,0.2051,0.2099,0.2136,0.2175,0.2219,0.2273,0.2323,0.2353,0.2439,0.2469,0.2521,0.2539,0.2539,0.2615,0.2603,0.2588,0.2549,0.2614,0.2622,0.2632,0.2501,0.25,0.2499,0.2498,0,0,0.197,0.2047,0.206,0.2092,0.2167,0.2189,0.2263,0.2326,0.2381,0.2445,0.251,0.2575,0.2606,0.2623,0.2641,0.2674,0.2746,0.2666,0.2666,0.2671,0.2819,0.2638,0.2631,0.2753,0.2755,0.2757,0.2799,0,0.1982,0.2034,0.2078,0.2143,0.2173,0.2241,0.2298,0.2367,0.2435,0.2508,0.256,0.2631,0.2633,0.2678,0.2713,0.2745,0.2775,0.2735,0.2762,0.2762,0.2587,0.2637,0.2763,0.2806,0.2808,0.281,0.2811,0,0.1975,0.2016,0.208,0.2163,0.2186,0.224,0.2346,0.2406,0.2511,0.2566,0.2648,0.2693,0.2775,0.2759,0.2841,0.2821,0.2833,0.2841,0.2842,0.2657,0.2598,0.2729,0.2828,0.2826,0.2825,0.2824,0.2823,0,0.1923,0.2012,0.2068,0.2097,0.2199,0.2258,0.2324,0.2433,0.2493,0.2622,0.2674,0.2769,0.2827,0.2869,0.2902,0.2889,0.2966,0.2941,0.2783,0.2771,0.2893,0.2883,0.299,0.299,0.299,0.299,0.299,0,0.1891,0.1938,0.2058,0.2083,0.2159,0.2245,0.2341,0.242,0.2537,0.2596,0.271,0.2759,0.2863,0.2915,0.2929,0.2879,0.2991,0.2795,0.2771,0.2918,0.291,0.2899,0.2888,0.2992,0.2991,0.2991,0.2991,0,0.1818,0.1897,0.1965,0.209,0.2137,0.2196,0.2338,0.239,0.2523,0.2606,0.2653,0.278,0.2844,0.291,0.2976,0.2889,0.2877,0.2832,0.2988,0.2972,0.2651,0.2644,0.265,0.2644,0.2639,0.2634,0.2631,0,0.1779,0.1812,0.1956,0.1998,0.2067,0.217,0.2227,0.237,0.2419,0.2589,0.2601,0.2725,0.2788,0.2723,0.2819,0.2818,0.2787,0.2751,0.2693,0.2641,0.2618,0.2618,0.2617,0.2623,0.2621,0.262,0.2619,0,0.1707,0.1783,0.184,0.1927,0.2003,0.2067,0.2164,0.2183,0.2331,0.2467,0.2482,0.251,0.2567,0.2606,0.2622,0.2622,0.2757,0.2697,0.2707,0.2652,0.2608,0.2591,0.2596,0.2601,0.2604,0.2605,0.2606,0,0.1663,0.1684,0.1771,0.183,0.1915,0.1934,0.2003,0.2044,0.2107,0.2279,0.2283,0.241,0.2538,0.2505,0.2528,0.2507,0.2466,0.2367,0.2393,0.2414,0.2317,0.2225,0.2081,0,0,0,0,0,0.1602,0.1607,0.1657,0.1705,0.178,0.1828,0.1937,0.2005,0.2144,0.2089,0.2176,0.2217,0.2239,0.2313,0.2245,0.2441,0.249,0.235,0.2394,0.2503,0.2524,0.2431,0,0,0,0,0,0,0.1557,0.1605,0.1614,0.1587,0.1593,0.1655,0.1719,0.1817,0.1792,0.1942,0.1967,0.2073,0.2137,0.2252,0.2199,0.222,0.2198,0.2435,0.2428,0.2492,0.251,0.2527,0.2439,0,0,0,0,0]},{"header":{"parameterUnit":"m.s-1","parameterCategory":2,"la1":30.2991,"la2":30.254,"lo1":-89.0895,"lo2":-89.0444,"dy":0.0017,"dx":0.0017,"nx":28,"ny":28,"refTime":"2024-02-08T09:00:00:Z","depth":"4","parameterNumber":3,"parameterNumberName":"V-component_of_CURRENTS"},"data":[0,0,0,0,0,0,0,0,0,0,0,0,0,0,0,0,0,0,0,0,0,0,0,0,0,0,0,0,0,0,0,0,0,0,0,0,0,0,0,0,0,0,0,0,0,0,0,0,0,0,0,0,0,0,0,0,0,0,0.0159,0.0159,0,0.0132,0.0132,0.0131,0.0113,0.0113,0.0113,0.0113,0.0075,0.0074,0.0073,0,0,0,0,0,0,0,0,0,0,0,0,0,0.0159,0.0159,0.0159,0.0159,0.0159,0.0132,0.0132,0.0131,0.0113,0.0113,0.0113,0.0113,0.0075,0.0074,0.0073,0,0,0,0,0,0,0,0,0,0,0,0,0,0.0147,0.0159,0.0159,0.0147,0.0146,0.0132,0.0132,0.0131,0.0113,0.0113,0.0113,0.0113,0.0075,0.0074,0.0073,0.0065,0,0,0.0068,0.0067,0,0,0,0,0,0,0,0,0.0148,0.0147,0.0149,0.0148,0.0146,0.0127,0.0117,0.0109,0.0113,0.0125,0.0113,0.0113,0.0092,0.0089,0.0083,0.0063,0.0062,0.0068,0.0067,0.0066,0.0066,0,0,0,0,0,0,0,0.0149,0.0148,0.0148,0.0149,0.0147,0.013,0.0129,0.0116,0.0108,0.0123,0.0122,0.0121,0.0091,0.0084,0.0082,0.0061,0.0068,0.0067,0.0066,0.0065,0.0038,0.0038,0,0,0,0,0,0,0.0156,0.0149,0.0148,0.0147,0.0148,0.0131,0.0129,0.0132,0.0108,0.0105,0.0121,0.012,0.0087,0.0083,0.008,0.0087,0.0066,0.0065,0.0064,0.0038,0.0038,0.0038,0,0,0,0,0,0,0.0156,0.0157,0.015,0.0148,0.0146,0.0131,0.0135,0.0132,0.013,0.0106,0.0103,0.0123,0.0087,0.0082,0.0076,0.0085,0.0064,0.0063,0.0038,0.0038,0.0038,0.0089,0,0,0,0,0,0,0.0157,0.0157,0.0164,0.0148,0.0146,0.0149,0.0135,0.0131,0.0129,0.0128,0.0107,0.0103,0.0086,0.0078,0.0074,0.0082,0.0062,0.0037,0.0038,0.0038,0.0087,0.0091,0.0095,0,0,0,0,0,0.0157,0.0167,0.0164,0.0164,0.0156,0.015,0.0147,0.0135,0.013,0.0133,0.0119,0.0104,0.0077,0.0077,0.0073,0.0081,0.0037,0.0038,0.0038,0.0086,0.0091,0.0094,0,0,0,0,0,0,0.017,0.0166,0.0163,0.0171,0.0165,0.0147,0.0149,0.0141,0.0132,0.0133,0.0108,0.0104,0.0099,0.0082,0.0083,0.0072,0.0054,0.0053,0.0092,0.0096,0.0099,0.0114,0.0061,0,0,0,0,0,0.0177,0.0185,0.0175,0.0183,0.0181,0.0166,0.0163,0.0157,0.0146,0.0142,0.0126,0.0109,0.0096,0.0091,0.0075,0.0072,0.0048,0.0072,0.0076,0.0079,0.0087,0.0057,0.0059,0.0039,0.0039,0.0039,0,0,0.0183,0.0183,0.0187,0.0187,0.018,0.0187,0.0164,0.0166,0.0174,0.014,0.0144,0.0121,0.0097,0.0094,0.009,0.0082,0.0071,0.0079,0.0082,0.0089,0.0058,0.006,0.0062,0.0039,0.0039,0.0039,0,0,0.0202,0.0201,0.0215,0.0213,0.0211,0.0205,0.0208,0.0196,0.0193,0.0192,0.0169,0.0154,0.0134,0.0119,0.0109,0.0122,0.009,0.0114,0.0147,0.0119,0.012,0.0121,0.0091,0.0089,0.0118,0.0118,0.0118,0,0.0209,0.0229,0.0217,0.0229,0.0235,0.0217,0.0234,0.0228,0.0216,0.0216,0.0201,0.017,0.0147,0.0143,0.0147,0.0131,0.0108,0.0135,0.0124,0.0125,0.0125,0.0093,0.0091,0.012,0.012,0.012,0.012,0,0.0237,0.0254,0.0261,0.0275,0.0278,0.0289,0.0282,0.0288,0.028,0.0267,0.0259,0.0224,0.0207,0.0193,0.0175,0.0168,0.0149,0.0132,0.0117,0.013,0.0096,0.0092,0.0124,0.0123,0.0122,0.0122,0,0,0.0253,0.0278,0.0282,0.0301,0.0305,0.0315,0.0332,0.034,0.0355,0.0328,0.0339,0.0302,0.0278,0.0264,0.0234,0.0206,0.0184,0.0176,0.0173,0.0152,0.0119,0.0107,0.0102,0.0165,0.0165,0.0164,0.0094,0,0.0281,0.0321,0.0324,0.0365,0.0385,0.0381,0.0402,0.0406,0.0397,0.04,0.0359,0.0351,0.0307,0.0301,0.0268,0.0209,0.0176,0.0204,0.0104,0.0101,0.0094,0.0098,0.0164,0.009,0.009,0.0089,0.0088,0,0.0311,0.0336,0.0383,0.0424,0.0432,0.0456,0.049,0.0505,0.0499,0.0492,0.0469,0.0428,0.0393,0.0351,0.0256,0.0277,0.0205,0.015,0.0146,0.0117,0.0083,0.0073,0.0081,0.0081,0.0082,0.0082,0.0083,0,0.0338,0.0381,0.0427,0.0437,0.0475,0.0504,0.0528,0.0536,0.056,0.0551,0.0558,0.0497,0.0481,0.0384,0.027,0.0263,0.0159,0.0132,0.005,0.0048,0.0058,0.0057,0.0059,0.0059,0.006,0.006,0.006,0,0.0367,0.0403,0.045,0.0472,0.0537,0.0547,0.0608,0.062,0.0641,0.0673,0.0611,0.0615,0.0489,0.041,0.0293,0.0167,0.0174,0.0059,0.0032,0.0079,0.0082,0.0054,0.0055,0.0057,0.0058,0.0058,0.0059,0,0.0387,0.0414,0.0473,0.0528,0.0554,0.0602,0.0674,0.0711,0.0724,0.0766,0.0768,0.0709,0.0608,0.0466,0.0311,0.0209,0.0078,0.0027,0.0094,0.0071,-0.0022,-0.0018,-0.0071,-0.0072,-0.0072,-0.0073,-0.0074,0,0.0399,0.0433,0.0517,0.0561,0.0592,0.0665,0.0719,0.0757,0.0798,0.0821,0.0844,0.0765,0.0703,0.0485,0.0327,0.0103,0.0063,-0.0011,-0.0025,-0.0013,-0.0034,-0.0029,-0.0025,-0.0075,-0.0075,-0.0075,-0.0076,0,0.0421,0.0457,0.0504,0.0596,0.0666,0.0744,0.0821,0.0858,0.0903,0.0915,0.0905,0.0789,0.0678,0.0495,0.0323,0.0159,0.0035,-0.002,-0.002,-0.0034,-0.0019,-0.0038,-0.0033,-0.0078,-0.0078,-0.0078,-0.0078,0,0.044,0.0476,0.0544,0.0626,0.0715,0.0797,0.0838,0.0891,0.0934,0.0955,0.0951,0.0827,0.0761,0.0525,0.0367,0.0205,0.0152,0.0085,0.0078,0.0079,0.0137,0.018,0.0162,0,0,0,0,0,0.0453,0.0493,0.0567,0.0656,0.0745,0.08,0.0895,0.0928,0.0972,0.0973,0.0965,0.0858,0.0634,0.0543,0.0379,0.0329,0.0111,0.0128,0.0026,-0.0094,-0.0091,-0.005,0,0,0,0,0,0,0.0459,0.0525,0.0561,0.0667,0.0731,0.0831,0.0894,0.0927,0.0931,0.095,0.084,0.0797,0.0584,0.0725,0.037,0.0322,0.023,0.0031,0.0027,-0.0096,-0.0093,-0.009,-0.0047,0,0,0,0,0]}]]